Vorticity
4 4 6 4 12 3 17 7 8 9 9 5 9 12 13 14 18 10 19 8 6 9 5 26 4 2 4 3 4 5 8 5 5 5 4 2 -2 2 4 3 2 4 6 7
6 8 5 4 16 10 6 34 8 0 -0 10 6 18 2 -12 38 8 7 5 7 8 7 9 7 7 5 6 7 5 4 6 7 7 9 10 11 7 6 7 8 6 7 10
10 7 7 3 10 10 9 20 17 -12 7 -2 22 2 -1 1 15 2 13 6 3 7 9 8 6 6 5 6 5 4 5 7 8 10 8 6 8 10 12 15 11 10 11 7
9 5 5 4 8 10 8 -3 12 24 -1 -13 7 6 4 -4 -1 -11 14 10 5 7 10 10 5 5 3 5 4 4 3 3 6 4 5 7 9 9 8 7 8 6 5 3
20 7 2 6 10 10 8 14 5 25 18 10 2 6 29 -4 32 -1 0 10 9 8 12 9 8 10 9 11 6 4 4 4 3 1 1 2 2 10 13 9 4 3 3 3
10 6 8 3 5 10 7 1 5 4 7 10 18 1 2 2 18 1 -2 -5 4 16 7 8 8 -1 -0 0 4 14 0 12 9 7 6 3 5 7 11 10 12 4 6 7
16 5 3 8 5 13 4 2 2 15 6 30 8 1 9 -3 6 25 14 -4 5 2 3 4 10 4 2 13 10 10 10 8 4 9 10 -2 14 14 12 10 4 15 6 -2
4 11 8 1 5 11 12 2 5 13 20 12 -8 9 -1 5 32 4 8 12 2 -0 13 11 4 9 7 5 5 8 4 7 7 0 -9 31 19 28 18 -40 11 3 1 16
6 11 11 3 14 7 8 8 11 1 1 -6 15 31 3 5 -8 7 7 8 14 10 -9 2 9 3 2 6 6 11 8 9 8 8 12 9 1 13 -24 10 0 4 3 5
8 20 7 11 4 9 5 8 17 0 4 8 15 4 3 13 2 -0 11 1 4 7 13 12 6 5 4 5 3 7 10 8 6 5 -0 4 -3 4 3 2 1 3 1 7
13 -2 20 -5 -2 3 13 -1 1 3 8 1 1 7 -0 -26 30 3 -3 14 6 8 9 11 15 7 6 7 1 1 5 5 4 2 6 5 5 3 4 2 3 5 6 3
17 -12 10 11 4 6 5 20 6 4 2 10 4 13 42 14 -14 -2 4 2 6 4 15 19 13 12 5 2 1 10 10 6 7 13 15 5 1 1 4 4 4 3 6 4
27 -1 -0 -8 4 11 9 12 8 15 4 -7 0 16 -7 -14 -6 6 17 7 7 4 10 17 9 9 10 9 4 5 9 3 3 9 9 5 -4 5 3 2 3 7 6 3
18 30 5 -0 4 8 19 -3 14 4 2 12 5 0 8 0 24 -6 24 13 7 8 11 9 12 12 13 10 10 9 8 4 2 4 -0 7 5 1 1 6 12 6 6 8
1 10 13 9 2 1 -2 5 9 -8 3 7 0 -2 18 12 3 25 -10 21 4 10 1 2 8 12 11 11 8 10 10 9 14 9 1 2 6 9 10 11 7 6 7 8
10 4 16 4 -1 1 -1 5 16 14 18 15 3 5 19 -5 19 20 7 -30 -19 -0 6 4 7 8 13 12 7 11 15 16 12 10 9 12 15 9 11 8 7 11 11 9
22 6 8 11 7 15 2 -11 5 1 6 3 6 9 2 9 0 -16 -2 23 17 19 18 18 6 -0 5 10 9 8 4 9 12 16 14 9 7 10 9 10 11 9 7 6
20 -1 6 3 3 4 15 3 0 7 -8 14 4 4 13 16 11 13 -3 19 11 10 14 9 8 8 3 2 4 5 7 10 8 9 15 12 9 8 10 9 7 6 4 2
21 4 21 18 -0 5 7 3 12 13 16 14 15 8 9 18 9 7 12 2 10 5 5 6 10 15 10 9 10 12 12 10 8 8 7 6 6 10 7 6 6 3 3 4
-13 16 14 7 6 -1 14 3 3 5 3 13 14 11 8 5 3 8 6 2 8 8 11 12 10 13 16 15 14 13 12 11 9 8 6 9 9 6 4 5 3 3 4 6
15 -15 4 11 6 20 3 3 3 13 -4 27 18 11 9 1 3 6 4 5 3 10 9 10 12 18 16 14 13 12 11 11 8 6 11 7 5 6 4 2 2 3 5 10
41 3 22 7 10 -1 6 15 10 4 38 -9 11 5 2 11 11 8 11 5 5 10 11 10 12 15 14 12 12 12 9 6 9 10 6 4 4 2 1 1 2 6 8 8
40 20 -2 9 6 12 10 1 15 7 4 4 4 26 12 3 0 4 5 5 4 7 10 10 9 11 12 12 10 9 9 9 6 5 4 2 1 1 1 5 7 9 16 12
-1 44 5 38 2 8 6 47 11 2 6 5 2 -1 8 14 13 6 7 8 8 7 8 8 8 7 8 8 7 7 5 4 3 3 2 1 2 3 6 12 -6 15 21 8
-6 -41 27 23 12 2 -10 -49 38 9 4 -7 -0 4 3 5 9 13 14 7 6 7 8 7 8 7 6 6 6 3 3 3 3 2 2 3 2 5 7 12 6 11 33 0
10 9 13 5 -8 12 4 21 14 14 11 4 8 6 5 -4 -1 9 13 10 9 7 5 5 5 8 8 6 4 3 4 4 3 3 1 3 7 5 3 3 0 -6 18 18
Height
5754 5755 5756 5754 5751 5751 5754 5753 5755 5757 5754 5754 5755 5754 5743 5747 5746 5744 5744 5746 5745 5745 5744 5743 5743 5744 5744 5745 5744 5744 5745 5746 5747 5747 5748 5749 5752 5756 5760 5762 5763 5765 5768 5770
5748 5751 5752 5751 5750 5750 5750 5750 5754 5755 5749 5749 5752 5751 5748 5741 5731 5747 5746 5745 5745 5745 5745 5745 5745 5745 5744 5745 5746 5747 5747 5747 5748 5749 5750 5751 5755 5757 5758 5761 5762 5765 5767 5769
5742 5747 5748 5747 5747 5747 5746 5746 5748 5746 5746 5748 5748 5750 5751 5747 5745 5746 5748 5746 5745 5745 5746 5746 5746 5746 5747 5748 5749 5750 5750 5751 5751 5752 5752 5752 5754 5756 5759 5760 5761 5763 5763 5765
5736 5740 5743 5742 5743 5744 5743 5744 5744 5743 5744 5747 5746 5746 5748 5749 5746 5746 5747 5745 5745 5744 5744 5745 5745 5746 5746 5747 5748 5749 5750 5751 5752 5751 5752 5753 5755 5755 5756 5758 5760 5762 5764 5765
5735 5734 5737 5739 5740 5740 5740 5739 5741 5741 5741 5742 5744 5744 5745 5744 5746 5745 5743 5744 5742 5742 5743 5745 5746 5746 5747 5747 5747 5748 5748 5749 5749 5749 5750 5751 5753 5754 5756 5758 5759 5761 5761 5762
5726 5729 5731 5734 5735 5736 5736 5736 5737 5738 5737 5737 5740 5741 5740 5740 5743 5742 5739 5742 5742 5741 5742 5743 5744 5746 5747 5747 5748 5748 5749 5749 5748 5749 5748 5749 5749 5750 5751 5752 5754 5755 5757 5757
5720 5720 5725 5727 5730 5732 5733 5732 5734 5734 5735 5737 5737 5739 5739 5738 5738 5738 5738 5740 5742 5741 5741 5741 5742 5743 5744 5746 5746 5747 5747 5747 5747 5746 5747 5747 5746 5748 5749 5749 5750 5750 5751 5753
5711 5714 5718 5723 5725 5728 5729 5730 5731 5731 5732 5734 5734 5737 5734 5733 5737 5737 5739 5741 5737 5737 5739 5738 5737 5739 5742 5742 5743 5743 5743 5742 5742 5743 5745 5744 5744 5744 5740 5735 5745 5746 5746 5747
5705 5707 5714 5715 5720 5721 5723 5723 5729 5729 5729 5730 5732 5732 5732 5733 5735 5734 5736 5736 5738 5737 5733 5733 5735 5734 5734 5737 5738 5739 5739 5738 5737 5739 5741 5741 5739 5740 5736 5739 5739 5742 5740 5740
5698 5703 5706 5710 5712 5714 5716 5721 5722 5722 5724 5726 5728 5731 5728 5728 5729 5730 5731 5731 5732 5733 5734 5733 5731 5731 5730 5731 5734 5735 5735 5733 5733 5734 5735 5735 5735 5736 5736 5737 5736 5734 5733 5730
5690 5695 5700 5703 5701 5708 5711 5713 5715 5718 5719 5721 5724 5727 5724 5722 5722 5723 5725 5726 5727 5727 5728 5728 5729 5728 5728 5727 5727 5730 5731 5729 5727 5726 5728 5729 5729 5727 5728 5729 5728 5728 5727 5725
5681 5686 5690 5694 5698 5702 5703 5706 5709 5711 5714 5715 5718 5720 5719 5723 5720 5718 5720 5721 5722 5720 5722 5722 5723 5725 5724 5724 5723 5725 5726 5726 5724 5723 5718 5722 5723 5721 5720 5720 5719 5719 5718 5716
5674 5675 5682 5686 5691 5691 5696 5699 5701 5705 5707 5709 5710 5717 5715 5717 5716 5717 5716 5716 5715 5716 5714 5716 5717 5719 5721 5720 5718 5717 5718 5718 5719 5715 5715 5715 5717 5713 5714 5713 5713 5712 5711 5709
5662 5666 5669 5676 5684 5690 5691 5692 5696 5699 5699 5702 5702 5706 5710 5710 5711 5712 5710 5709 5709 5709 5710 5709 5711 5712 5713 5714 5714 5713 5713 5712 5711 5711 5711 5710 5709 5709 5708 5707 5706 5704 5703 5701
5652 5655 5662 5669 5677 5683 5686 5687 5690 5691 5694 5693 5697 5698 5701 5705 5702 5704 5702 5702 5701 5704 5704 5704 5704 5705 5705 5706 5706 5706 5706 5706 5703 5704 5703 5703 5702 5701 5700 5699 5697 5695 5693 5691
5642 5648 5654 5657 5667 5672 5675 5679 5682 5686 5687 5689 5691 5691 5696 5698 5698 5698 5696 5697 5698 5697 5698 5698 5695 5696 5698 5697 5697 5698 5698 5698 5696 5695 5694 5693 5693 5692 5692 5690 5688 5686 5684 5681
5634 5638 5645 5648 5659 5664 5663 5669 5675 5679 5681 5683 5684 5687 5690 5691 5692 5692 5691 5691 5689 5690 5691 5691 5689 5685 5687 5689 5688 5689 5689 5688 5688 5687 5687 5686 5685 5684 5682 5681 5679 5676 5673 5670
5626 5630 5637 5641 5651 5645 5654 5661 5666 5668 5670 5674 5677 5679 5681 5682 5684 5684 5683 5682 5683 5683 5685 5684 5683 5681 5678 5680 5679 5679 5679 5679 5679 5679 5678 5677 5676 5674 5672 5670 5668 5665 5662 5658
5618 5624 5629 5631 5637 5642 5647 5654 5657 5659 5664 5667 5669 5671 5673 5675 5674 5674 5676 5678 5675 5675 5677 5675 5675 5674 5671 5670 5670 5671 5671 5670 5670 5669 5668 5666 5665 5663 5661 5659 5656 5653 5650 5647
5607 5614 5620 5626 5628 5631 5640 5648 5652 5655 5652 5660 5662 5664 5666 5666 5664 5669 5668 5671 5670 5667 5667 5667 5665 5664 5663 5662 5661 5661 5661 5661 5661 5660 5659 5658 5656 5654 5651 5649 5646 5642 5638 5634
5597 5606 5610 5618 5620 5626 5635 5641 5645 5645 5654 5654 5655 5657 5657 5655 5658 5660 5662 5662 5661 5661 5659 5657 5656 5654 5654 5653 5652 5652 5652 5652 5651 5651 5649 5648 5646 5644 5641 5638 5634 5630 5625 5620
5588 5595 5602 5609 5614 5619 5628 5631 5633 5644 5648 5646 5645 5648 5648 5648 5650 5652 5652 5653 5653 5653 5651 5649 5647 5646 5645 5644 5643 5643 5643 5643 5642 5641 5640 5638 5636 5633 5629 5625 5621 5616 5610 5604
5582 5591 5598 5603 5608 5611 5618 5621 5628 5633 5635 5637 5638 5639 5639 5638 5642 5643 5644 5644 5644 5643 5642 5641 5640 5638 5637 5636 5635 5634 5634 5634 5633 5631 5629 5627 5624 5620 5616 5612 5606 5601 5595 5589
5576 5582 5586 5591 5600 5605 5612 5611 5618 5621 5623 5628 5628 5627 5628 5628 5631 5633 5635 5634 5634 5634 5632 5632 5631 5630 5629 5628 5627 5626 5624 5623 5621 5620 5617 5614 5611 5607 5602 5597 5592 5586 5579 5574
5572 5576 5580 5585 5592 5596 5600 5602 5602 5609 5614 5616 5619 5619 5621 5620 5623 5623 5624 5624 5624 5624 5623 5622 5621 5620 5619 5618 5617 5615 5613 5612 5610 5607 5604 5600 5595 5591 5586 5582 5576 5569 5563 5557
5563 5568 5572 5577 5584 5583 5587 5591 5596 5602 5606 5608 5609 5609 5612 5611 5613 5613 5613 5613 5613 5612 5613 5612 5610 5609 5608 5607 5606 5604 5602 5600 5597 5594 5590 5584 5579 5575 5570 5563 5558 5552 5545 5539